This is the latest recevied weather packets stored in our database for station/object LU9FW-5. If no packets are shown the sender has not sent any weather packets the latest 1 day(s).
| Time | Temp. | Humidity | Pressure | Rain* | Wind** | Luminosity | Snow |
|---|---|---|---|---|---|---|---|
| 1778167988 | 14.44° C | 63% | 1001.3 hPa | 0 mm | - | 443 W/m² | - |
| 1778167706 | 14.44° C | 64% | 1001.5 hPa | 0 mm | - | 443 W/m² | - |
| 1778167491 | 13.89° C | 66% | 1001.8 hPa | 0 mm | - | 443 W/m² | - |
| 1778167213 | 13.89° C | 65% | 1001.7 hPa | 0 mm | - | 443 W/m² | - |
| 1778166790 | 13.89° C | 67% | 1002.1 hPa | 0 mm | - | 443 W/m² | - |
| 1778166582 | 13.89° C | 67% | 1002.3 hPa | 0 mm | - | 443 W/m² | - |
| 1778166511 | 13.89° C | 67% | 1002.4 hPa | 0 mm | - | 443 W/m² | - |
| 1778166300 | 13.89° C | 68% | 1002.4 hPa | 0 mm | - | 443 W/m² | - |
| 1778166273 | 13.89° C | 68% | 1002.5 hPa | 0 mm | - | 443 W/m² | - |
| 1778166083 | 13.33° C | 66% | 1002.1 hPa | 0 mm | - | 370 W/m² | - |
| 1778166014 | 13.33° C | 67% | 1002.1 hPa | 0 mm | - | 370 W/m² | - |
| 1778165872 | 13.33° C | 68% | 1002 hPa | 0 mm | - | 370 W/m² | - |
| 1778165804 | 13.33° C | 68% | 1001.9 hPa | 0 mm | - | 370 W/m² | - |
| 1778165733 | 13.33° C | 68% | 1002 hPa | 0 mm | - | 370 W/m² | - |
| 1778165515 | 13.33° C | 68% | 1002 hPa | 0 mm | - | 370 W/m² | - |
| 1778164951 | 13.33° C | 68% | 1001.6 hPa | 0 mm | - | 370 W/m² | - |
| 1778164736 | 13.33° C | 66% | 1001.6 hPa | 0 mm | - | 370 W/m² | - |
| 1778164320 | 13.33° C | 69% | 1001.8 hPa | 0 mm | - | 260 W/m² | - |
| 1778163971 | 13.33° C | 70% | 1001.9 hPa | 0 mm | - | 260 W/m² | - |
| 1778163761 | 13.89° C | 71% | 1001.9 hPa | 0 mm | - | 260 W/m² | - |
| 1778163691 | 13.89° C | 68% | 1001.8 hPa | 0 mm | - | 260 W/m² | - |
| 1778163176 | 13.33° C | 71% | 1001.5 hPa | 0 mm | - | 260 W/m² | - |
| 1778162495 | 13.33° C | 73% | 1001.5 hPa | 0 mm | - | - | - |
| 1778162285 | 13.33° C | 72% | 1001.2 hPa | 0 mm | - | - | - |
| 1778162201 | 13.33° C | 72% | 1001.3 hPa | 0 mm | - | - | - |
* Rain latest hour (hover to see other rain measurements)
** Current wind speed in m/s (hover to see current wind gust speed)